Minneapolis Crystal, MN

8:20 AM CDT on July 20, 2017 (GMT -0500)
Crystal

Weather History for KMIC - March, 2013

Change the Weather History Date:

Saturday, March 30, 2013

  Actual Average Record
Temperature  
Mean Temperature 44 °F -  
Max Temperature 52 °F 44 °F 72 °F (1999)
Min Temperature 35 °F 28 °F 17 °F (2011)
Degree Days  
Heating Degree Days 22    
Moisture  
Dew Point 36 °F    
Average Humidity 82    
Maximum Humidity 100    
Minimum Humidity 66    
Precipitation  
Precipitation 0.36 in - - ()
Sea Level Pressure  
Sea Level Pressure 29.90 in    
Wind  
Wind Speed 8 mph (SW)    
Max Wind Speed 12 mph    
Max Gust Speed 18 mph    
Visibility 6 miles    
Events Rain , Thunderstorm    
Averages and records for this station are not official NWS values.
T = Trace of Precipitation, MM = Missing Value Source: NWS Daily Summary

Daily Weather History Graph

Daily Weather History Graph

Search for Another Location

Airport or City:

Trip Planner

Search our weather history database for the weather conditions in past years. The results will help you decide how hot, cold, wet, or windy it might be!

Date:

Astronomy

Mar. 30, 2013 Rise Set
Actual Time 6:57 AM CDT 7:39 PM CDT
Civil Twilight 6:27 AM CDT 8:08 PM CDT
Nautical Twilight 5:52 AM CDT 8:44 PM CDT
Astronomical Twilight 5:15 AM CDT 9:20 PM CDT
Moon 11:57 PM CDT (3/30) 8:42 AM CDT (3/30)
Length of Visible Light 13h 41m
Length of Day
12h 41m
Waning Gibbous, 86% of the Moon is Illuminated
Mar 30
Waning Gibbous
Apr 2
Last Quarter
Apr 10
New
Apr 18
First Quarter
Apr 25
Full

Hourly Weather History & Observations

Time (CDT) Temp. Windchill Dew Point Humidity Pressure Visibility Wind Dir Wind Speed Gust Speed Precip Events Conditions
12:53 AM 41.0 °F 35.2 °F 33.1 °F 73% 30.06 in 8.0 mi SE 9.2 mph - N/A   Overcast
1:53 AM 41.0 °F 35.2 °F 33.1 °F 73% 30.02 in 9.0 mi SE 9.2 mph - N/A   Overcast
2:53 AM 42.1 °F 36.1 °F 32.0 °F 67% 29.99 in 9.0 mi SSE 10.4 mph - N/A   Mostly Cloudy
3:53 AM 41.0 °F 34.3 °F 32.0 °F 70% 29.95 in 7.0 mi SE 11.5 mph - 0.00 in Rain Light Rain
4:15 AM 41.0 °F 36.4 °F 33.8 °F 76% 29.92 in 9.0 mi SSE 6.9 mph 18.4 mph 0.00 in Rain , Thunderstorm Light Rain
4:48 AM 39.2 °F - 35.6 °F 87% 29.97 in 2.0 mi Calm Calm - 0.08 in Rain , Thunderstorm Thunderstorms and Rain
4:53 AM 37.9 °F - 35.1 °F 89% 29.99 in 2.0 mi Calm Calm - 0.10 in Rain , Thunderstorm Thunderstorms and Rain
5:05 AM 37.4 °F 32.8 °F 35.6 °F 93% 29.94 in 1.8 mi SE 5.8 mph - 0.05 in Rain Rain
5:16 AM 37.4 °F 32.1 °F 37.4 °F 100% 29.93 in 2.0 mi SE 6.9 mph - 0.11 in Rain Heavy Rain
5:40 AM 37.4 °F 31.4 °F 35.6 °F 93% 29.91 in 4.0 mi SSE 8.1 mph - 0.15 in Rain Light Rain
5:53 AM 37.9 °F 32.1 °F 36.0 °F 93% 29.93 in 4.0 mi South 8.1 mph - 0.15 in Rain Light Rain
6:53 AM 39.0 °F 33.4 °F 37.0 °F 93% 29.90 in 5.0 mi South 8.1 mph - 0.03 in   Overcast
7:53 AM 39.0 °F 34.8 °F 36.0 °F 89% 29.90 in 4.0 mi South 5.8 mph - 0.00 in Rain Light Rain
8:09 AM 39.2 °F 35.0 °F 37.4 °F 93% 29.88 in 2.5 mi South 5.8 mph - 0.02 in Rain Light Rain
8:13 AM 39.2 °F 37.0 °F 37.4 °F 93% 29.88 in 3.0 mi SSW 3.5 mph - 0.02 in Rain Light Rain
8:28 AM 39.2 °F 35.0 °F 37.4 °F 93% 29.87 in 2.5 mi South 5.8 mph - 0.04 in Rain Light Rain
8:53 AM 39.0 °F 34.0 °F 37.0 °F 93% 29.89 in 2.5 mi SSW 6.9 mph - 0.08 in Rain Light Rain
9:01 AM 39.2 °F 33.6 °F 37.4 °F 93% 29.86 in 4.0 mi South 8.1 mph - 0.00 in Rain Light Rain
9:53 AM 39.9 °F 35.8 °F 37.0 °F 89% 29.88 in 5.0 mi SW 5.8 mph - 0.00 in   Overcast
10:30 AM 41.0 °F 37.1 °F 39.2 °F 93% 29.87 in 6.0 mi WSW 5.8 mph - N/A   Overcast
10:53 AM 44.1 °F 40.1 °F 39.9 °F 85% 29.89 in 6.0 mi West 6.9 mph - N/A   Mostly Cloudy
11:04 AM 44.6 °F 40.7 °F 39.2 °F 81% 29.87 in 6.0 mi West 6.9 mph - N/A   Scattered Clouds
11:21 AM 44.6 °F 40.2 °F 39.2 °F 81% 29.87 in 6.0 mi WNW 8.1 mph - N/A   Haze
11:53 AM 44.1 °F 39.0 °F 39.0 °F 82% 29.89 in 6.0 mi WNW 9.2 mph - N/A   Haze
12:53 PM 46.9 °F - 41.0 °F 80% 29.88 in 6.0 mi WNW 9.2 mph - N/A   Haze
1:53 PM 48.9 °F - 41.0 °F 74% 29.87 in 7.0 mi WNW 10.4 mph - N/A   Partly Cloudy
2:53 PM 51.1 °F - 41.0 °F 68% 29.86 in 8.0 mi WNW 10.4 mph - N/A   Scattered Clouds
3:53 PM 51.1 °F - 39.9 °F 66% 29.86 in 10.0 mi WNW 10.4 mph - N/A   Clear
4:53 PM 51.1 °F - 39.9 °F 66% 29.86 in 9.0 mi West 9.2 mph - N/A   Clear
5:53 PM 48.9 °F - 39.0 °F 69% 29.86 in 8.0 mi West 8.1 mph - N/A   Clear
6:53 PM 45.0 °F 41.2 °F 36.0 °F 71% 29.86 in 8.0 mi West 6.9 mph - N/A   Clear
7:53 PM 42.1 °F 37.1 °F 34.0 °F 73% 29.86 in 7.0 mi West 8.1 mph - N/A   Clear
8:53 PM 39.0 °F 33.4 °F 33.1 °F 79% 29.88 in 7.0 mi West 8.1 mph - N/A   Clear
9:53 PM 37.9 °F 32.1 °F 32.0 °F 79% 29.88 in 7.0 mi West 8.1 mph - N/A   Clear
10:53 PM 36.0 °F 29.6 °F 30.9 °F 82% 29.87 in 6.0 mi West 8.1 mph - N/A   Haze
11:53 PM 35.1 °F 27.9 °F 30.0 °F 82% 29.86 in 6.0 mi WNW 9.2 mph - N/A   Haze